ARE4406 SKBO-KMCO

Flight info

Callsign ARE4406
Flight time 3h 29m
Altitude 38000
Route OSUSU4R GIKPU UW10 YACAR DCT EJA DCT OPNIR DCT CTG/N0483F400 DCT VARON DCT BUTUM DCT NESMO DCT KILER DCT EPSIM DCT ALTIB DCT ZEUSS DCT ZBV DCT PBI DCT BAIRN
Aircraft A359/H-SDE2E3GHIJ3J4J5LM1ORWXY/LB1D1

Departure

Time 2026-04-23 13:53
Airport El Dorado International Airport (SKBO)

Arrival

Time 2026-04-23 17:22
Airport Orlando International Airport (KMCO)
Time Latitude Longitude Altitude Speed Heading
2026-04-23 13:16 4.69840 -74.13917 8352 ft 0 kts 220°
2026-04-23 13:40 4.69844 -74.13914 8352 ft 2 kts 220°
2026-04-23 13:41 4.69859 -74.13901 8355 ft 3 kts 220°
2026-04-23 13:41 4.69873 -74.13889 8355 ft 3 kts 232°
2026-04-23 13:41 4.69882 -74.13874 8352 ft 3 kts 256°
2026-04-23 13:41 4.69885 -74.13859 8352 ft 3 kts 284°
2026-04-23 13:42 4.69879 -74.13842 8352 ft 3 kts 304°
2026-04-23 13:42 4.69871 -74.13832 8352 ft 2 kts 307°
2026-04-23 13:42 4.69860 -74.13817 8352 ft 3 kts 307°
2026-04-23 13:42 4.69854 -74.13809 8352 ft 4 kts 307°
2026-04-23 13:45 4.69868 -74.13827 8352 ft 7 kts 308°
2026-04-23 13:46 4.69910 -74.13882 8352 ft 12 kts 307°
2026-04-23 13:46 4.69959 -74.13947 8352 ft 11 kts 307°
2026-04-23 13:46 4.70004 -74.14006 8352 ft 10 kts 310°
2026-04-23 13:46 4.70064 -74.14017 8352 ft 9 kts 20°
2026-04-23 13:47 4.70115 -74.13983 8355 ft 9 kts 36°
2026-04-23 13:47 4.70167 -74.13987 8353 ft 9 kts 320°
2026-04-23 13:47 4.70218 -74.14053 8352 ft 15 kts 307°
2026-04-23 13:47 4.70283 -74.14137 8353 ft 15 kts 307°
2026-04-23 13:48 4.70346 -74.14222 8353 ft 15 kts 307°
2026-04-23 13:48 4.70408 -74.14304 8356 ft 15 kts 307°
2026-04-23 13:48 4.70470 -74.14385 8353 ft 14 kts 308°
2026-04-23 13:48 4.70531 -74.14465 8352 ft 14 kts 307°
2026-04-23 13:49 4.70591 -74.14545 8356 ft 14 kts 307°
2026-04-23 13:49 4.70650 -74.14622 8354 ft 14 kts 307°
2026-04-23 13:49 4.70709 -74.14700 8356 ft 14 kts 306°
2026-04-23 13:49 4.70768 -74.14779 8355 ft 14 kts 307°
2026-04-23 13:50 4.70827 -74.14858 8352 ft 14 kts 307°
2026-04-23 13:50 4.70886 -74.14936 8352 ft 14 kts 307°
2026-04-23 13:50 4.70945 -74.15013 8352 ft 14 kts 307°
2026-04-23 13:50 4.71004 -74.15092 8355 ft 14 kts 307°
2026-04-23 13:51 4.71063 -74.15169 8352 ft 14 kts 307°
2026-04-23 13:51 4.71134 -74.15225 8353 ft 13 kts 345°
2026-04-23 13:51 4.71223 -74.15239 8356 ft 13 kts 351°
2026-04-23 13:51 4.71303 -74.15216 8352 ft 12 kts 43°
2026-04-23 13:52 4.71298 -74.15147 8352 ft 11 kts 127°
2026-04-23 13:52 4.71207 -74.15026 8354 ft 48 kts 127°
2026-04-23 13:52 4.70858 -74.14566 8354 ft 116 kts 127°
2026-04-23 13:52 4.70241 -74.13756 8354 ft 175 kts 127°
2026-04-23 13:53 4.69472 -74.12744 8915 ft 183 kts 126°
2026-04-23 13:53 4.68710 -74.11745 9787 ft 180 kts 126°
2026-04-23 13:53 4.68049 -74.10674 10487 ft 184 kts 107°
2026-04-23 13:53 4.68084 -74.09424 11222 ft 182 kts 68°
2026-04-23 13:54 4.68872 -74.08454 11824 ft 183 kts 34°
2026-04-23 13:54 4.70055 -74.07979 12307 ft 185 kts 14°
2026-04-23 13:54 4.71332 -74.07653 12700 ft 197 kts 15°
2026-04-23 13:54 4.72720 -74.07287 12986 ft 215 kts 14°
2026-04-23 13:55 4.74231 -74.06907 13288 ft 233 kts 14°
2026-04-23 13:55 4.75873 -74.06510 13559 ft 253 kts 13°
2026-04-23 13:55 4.77663 -74.06083 13811 ft 275 kts 13°
2026-04-23 13:55 4.79593 -74.05633 14158 ft 294 kts 13°
2026-04-23 13:56 4.81647 -74.05158 14500 ft 312 kts 13°
2026-04-23 13:56 4.83813 -74.04653 14824 ft 328 kts 13°
2026-04-23 13:56 4.86068 -74.04009 15150 ft 345 kts 18°
2026-04-23 13:56 4.88394 -74.03231 15469 ft 359 kts 18°
2026-04-23 13:57 4.90803 -74.02409 15777 ft 373 kts 18°
2026-04-23 13:57 4.93305 -74.01557 16057 ft 385 kts 18°
2026-04-23 13:57 4.95873 -74.00683 16438 ft 393 kts 18°
2026-04-23 13:57 4.98483 -73.99799 16935 ft 397 kts 18°
2026-04-23 13:58 5.01119 -73.98904 17434 ft 401 kts 18°
2026-04-23 13:58 5.03755 -73.98061 17917 ft 405 kts 14°
2026-04-23 13:58 5.06499 -73.97390 18414 ft 408 kts 12°
2026-04-23 13:58 5.09284 -73.96743 18904 ft 411 kts 13°
2026-04-23 13:59 5.12084 -73.96075 19369 ft 415 kts 13°
2026-04-23 13:59 5.14898 -73.95392 19837 ft 418 kts 13°
2026-04-23 13:59 5.17736 -73.94694 20311 ft 421 kts 13°
2026-04-23 13:59 5.20590 -73.93989 20752 ft 424 kts 13°
2026-04-23 14:00 5.22496 -73.93516 21044 ft 427 kts 13°
2026-04-23 14:00 5.26367 -73.92555 21643 ft 430 kts 13°
2026-04-23 14:00 5.29290 -73.91832 22081 ft 434 kts 13°
2026-04-23 14:00 5.32230 -73.91099 22512 ft 436 kts 13°
2026-04-23 14:01 5.35192 -73.90359 22926 ft 439 kts 13°
2026-04-23 14:01 5.38133 -73.89625 23318 ft 442 kts 13°
2026-04-23 14:01 5.41126 -73.88879 23723 ft 446 kts 13°
2026-04-23 14:01 5.44153 -73.88125 24106 ft 448 kts 13°
2026-04-23 14:02 5.47191 -73.87369 24505 ft 452 kts 13°
2026-04-23 14:02 5.50252 -73.86607 24890 ft 454 kts 13°
2026-04-23 14:02 5.53337 -73.85838 25299 ft 457 kts 13°
2026-04-23 14:02 5.56447 -73.85125 25716 ft 460 kts 11°
2026-04-23 14:03 5.59602 -73.84494 26136 ft 464 kts 11°
2026-04-23 14:03 5.62781 -73.83864 26602 ft 467 kts 11°
2026-04-23 14:03 5.65977 -73.83221 27028 ft 470 kts 11°
2026-04-23 14:03 5.69189 -73.82567 27436 ft 474 kts 11°
2026-04-23 14:04 5.72432 -73.81903 27835 ft 477 kts 11°
2026-04-23 14:04 5.75696 -73.81234 28259 ft 480 kts 11°
2026-04-23 14:04 5.78980 -73.80559 28663 ft 483 kts 12°
2026-04-23 14:04 5.82282 -73.79880 29038 ft 486 kts 12°
2026-04-23 14:05 5.85605 -73.79195 29410 ft 489 kts 12°
2026-04-23 14:05 5.88951 -73.78508 29805 ft 492 kts 12°
2026-04-23 14:05 5.92316 -73.77814 30147 ft 495 kts 12°
2026-04-23 14:05 5.95707 -73.77115 30493 ft 498 kts 12°
2026-04-23 14:06 5.99108 -73.76413 30806 ft 501 kts 12°
2026-04-23 14:06 6.02536 -73.75705 31087 ft 504 kts 12°
2026-04-23 14:06 6.05942 -73.75007 31370 ft 507 kts 12°
2026-04-23 14:06 6.09423 -73.74292 31653 ft 510 kts 12°
2026-04-23 14:07 6.12909 -73.73574 31946 ft 513 kts 12°
2026-04-23 14:07 6.19948 -73.72122 32439 ft 517 kts 12°
2026-04-23 14:07 6.23481 -73.71393 32790 ft 517 kts 12°
2026-04-23 14:08 6.27004 -73.70667 33166 ft 517 kts 12°
2026-04-23 14:08 6.30488 -73.69948 33482 ft 517 kts 12°
2026-04-23 14:08 6.34059 -73.69210 33829 ft 517 kts 12°
2026-04-23 14:08 6.37544 -73.68491 34173 ft 517 kts 12°
2026-04-23 14:09 6.41064 -73.67765 34524 ft 516 kts 12°
2026-04-23 14:09 6.44600 -73.67135 34861 ft 516 kts
2026-04-23 14:09 6.48184 -73.66955 35181 ft 516 kts 358°
2026-04-23 14:09 6.51753 -73.67335 35522 ft 515 kts 348°
2026-04-23 14:10 6.55258 -73.68092 35848 ft 514 kts 346°
2026-04-23 14:10 6.58741 -73.68957 36126 ft 514 kts 345°
2026-04-23 14:10 6.62199 -73.69869 36404 ft 514 kts 345°
2026-04-23 14:10 6.65656 -73.70798 36649 ft 515 kts 345°
2026-04-23 14:11 6.69117 -73.71729 36956 ft 513 kts 345°
2026-04-23 14:11 6.72554 -73.72645 37332 ft 510 kts 345°
2026-04-23 14:11 6.75981 -73.73549 37577 ft 509 kts 345°
2026-04-23 14:11 6.79402 -73.74445 37612 ft 507 kts 345°
2026-04-23 14:12 6.86230 -73.76223 37604 ft 507 kts 345°
2026-04-23 14:12 6.93021 -73.77990 37595 ft 507 kts 345°
2026-04-23 14:13 6.99856 -73.79769 37586 ft 507 kts 345°
2026-04-23 14:13 7.06557 -73.81978 37581 ft 507 kts 339°
2026-04-23 14:14 7.13157 -73.84489 37595 ft 508 kts 339°
2026-04-23 14:14 7.19756 -73.87051 37585 ft 508 kts 338°
2026-04-23 14:15 7.26344 -73.89604 37595 ft 508 kts 338°
2026-04-23 14:15 7.32908 -73.92141 37598 ft 508 kts 338°
2026-04-23 14:16 7.39516 -73.94695 37593 ft 508 kts 338°
2026-04-23 14:16 7.46126 -73.97248 37610 ft 508 kts 338°
2026-04-23 14:17 7.52731 -73.99799 37616 ft 508 kts 338°
2026-04-23 14:17 7.59341 -74.02351 37618 ft 509 kts 338°
2026-04-23 14:18 7.65953 -74.04907 37629 ft 509 kts 338°
2026-04-23 14:18 7.72541 -74.07457 37628 ft 509 kts 338°
2026-04-23 14:19 7.79170 -74.10023 37637 ft 509 kts 338°
2026-04-23 14:19 7.85782 -74.12583 37637 ft 509 kts 338°
2026-04-23 14:20 7.92394 -74.15142 37637 ft 509 kts 338°
2026-04-23 14:20 7.98706 -74.18331 37637 ft 508 kts 329°
2026-04-23 14:21 8.04820 -74.21900 37636 ft 507 kts 328°
2026-04-23 14:21 8.10869 -74.25505 37637 ft 507 kts 328°
2026-04-23 14:22 8.16952 -74.29125 37638 ft 508 kts 328°
2026-04-23 14:22 8.23047 -74.32738 37638 ft 507 kts 328°
2026-04-23 14:23 8.29136 -74.36345 37632 ft 507 kts 328°
2026-04-23 14:23 8.35230 -74.39956 37621 ft 508 kts 328°
2026-04-23 14:24 8.41325 -74.43569 37577 ft 508 kts 328°
2026-04-23 14:24 8.47414 -74.47176 37574 ft 507 kts 328°
2026-04-23 14:25 8.53508 -74.50789 37573 ft 508 kts 328°
2026-04-23 14:25 8.58576 -74.53797 37574 ft 508 kts 328°
2026-04-23 14:26 8.65666 -74.58006 37573 ft 508 kts 328°
2026-04-23 14:26 8.70739 -74.61019 37572 ft 508 kts 328°
2026-04-23 14:27 8.77833 -74.65233 37574 ft 508 kts 328°
2026-04-23 14:27 8.82937 -74.68266 37570 ft 508 kts 328°
2026-04-23 14:28 8.89025 -74.71888 37563 ft 507 kts 328°
2026-04-23 14:28 8.95069 -74.75481 37564 ft 507 kts 328°
2026-04-23 14:29 9.01147 -74.79095 37563 ft 507 kts 328°
2026-04-23 14:29 9.07238 -74.82719 37564 ft 507 kts 328°
2026-04-23 14:30 9.13313 -74.86334 37564 ft 506 kts 328°
2026-04-23 14:30 9.19388 -74.89952 37564 ft 507 kts 328°
2026-04-23 14:31 9.25464 -74.93574 37556 ft 506 kts 328°
2026-04-23 14:31 9.31499 -74.97171 37554 ft 507 kts 328°
2026-04-23 14:32 9.37570 -75.00793 37555 ft 506 kts 328°
2026-04-23 14:32 9.43643 -75.04418 37556 ft 506 kts 328°
2026-04-23 14:33 9.49710 -75.08039 37557 ft 506 kts 328°
2026-04-23 14:33 9.55785 -75.11665 37553 ft 507 kts 328°
2026-04-23 14:34 9.61860 -75.15292 37556 ft 506 kts 328°
2026-04-23 14:34 9.67895 -75.18900 37554 ft 506 kts 328°
2026-04-23 14:35 9.73959 -75.22529 37554 ft 506 kts 328°
2026-04-23 14:35 9.80013 -75.26148 37552 ft 505 kts 328°
2026-04-23 14:36 9.86071 -75.29772 37554 ft 505 kts 328°
2026-04-23 14:36 9.92130 -75.33393 37554 ft 505 kts 328°
2026-04-23 14:37 9.98183 -75.37019 37555 ft 505 kts 328°
2026-04-23 14:37 10.04231 -75.40646 37555 ft 504 kts 328°
2026-04-23 14:38 10.10225 -75.44242 37553 ft 503 kts 328°
2026-04-23 14:38 10.16260 -75.47865 37555 ft 503 kts 328°
2026-04-23 14:39 10.22538 -75.50992 37556 ft 505 kts 341°
2026-04-23 14:39 10.29259 -75.53090 37555 ft 505 kts 343°
2026-04-23 14:40 10.36034 -75.55012 37554 ft 506 kts 343°
2026-04-23 14:40 10.42811 -75.56923 37556 ft 506 kts 343°
2026-04-23 14:41 10.49602 -75.58861 37554 ft 506 kts 343°
2026-04-23 14:41 10.56346 -75.60797 37554 ft 506 kts 343°
2026-04-23 14:42 10.63114 -75.62742 37554 ft 506 kts 343°
2026-04-23 14:42 10.69889 -75.64692 37555 ft 506 kts 343°
2026-04-23 14:43 10.76659 -75.66639 37554 ft 505 kts 343°
2026-04-23 14:43 10.83431 -75.68586 37554 ft 505 kts 343°
2026-04-23 14:44 10.90197 -75.70534 37556 ft 505 kts 343°
2026-04-23 14:44 10.96970 -75.72485 37556 ft 505 kts 342°
2026-04-23 14:45 11.03742 -75.74436 37553 ft 505 kts 342°
2026-04-23 14:45 11.10518 -75.76351 37555 ft 506 kts 343°
2026-04-23 14:46 11.17274 -75.78210 37553 ft 505 kts 343°
2026-04-23 14:46 11.24059 -75.80083 37555 ft 505 kts 343°
2026-04-23 14:47 11.30839 -75.81968 37555 ft 505 kts 343°
2026-04-23 14:47 11.37626 -75.83854 37554 ft 505 kts 343°
2026-04-23 14:48 11.44412 -75.85740 37564 ft 505 kts 343°
2026-04-23 14:48 11.51200 -75.87629 37564 ft 505 kts 342°
2026-04-23 14:49 11.57935 -75.89506 37564 ft 505 kts 342°
2026-04-23 14:49 11.64720 -75.91397 37564 ft 505 kts 342°
2026-04-23 14:50 11.71506 -75.93289 37564 ft 505 kts 342°
2026-04-23 14:50 11.78285 -75.95183 37564 ft 505 kts 342°
2026-04-23 14:51 11.85078 -75.97102 37564 ft 505 kts 342°
2026-04-23 14:51 11.91851 -75.99036 37564 ft 505 kts 342°
2026-04-23 14:52 11.98575 -76.00957 37564 ft 505 kts 342°
2026-04-23 14:52 12.05342 -76.02885 37564 ft 505 kts 342°
2026-04-23 14:53 12.12109 -76.04814 37564 ft 505 kts 342°
2026-04-23 14:53 12.18891 -76.06747 37564 ft 505 kts 342°
2026-04-23 14:54 12.25658 -76.08679 37564 ft 505 kts 342°
2026-04-23 14:54 12.32422 -76.10617 37564 ft 505 kts 342°
2026-04-23 14:55 12.39146 -76.12538 37564 ft 504 kts 342°
2026-04-23 14:55 12.45917 -76.14474 37563 ft 504 kts 342°
2026-04-23 14:56 12.52672 -76.16409 37564 ft 504 kts 342°
2026-04-23 14:56 12.59436 -76.18350 37564 ft 504 kts 342°
2026-04-23 14:57 12.66187 -76.20284 37564 ft 504 kts 342°
2026-04-23 14:57 12.72938 -76.22219 37564 ft 503 kts 342°
2026-04-23 14:58 12.79678 -76.24154 37564 ft 503 kts 341°
2026-04-23 14:58 12.86420 -76.26092 37569 ft 503 kts 341°
2026-04-23 14:59 12.93117 -76.28015 37573 ft 503 kts 341°
2026-04-23 14:59 12.99854 -76.29952 37573 ft 502 kts 341°
2026-04-23 15:00 13.06581 -76.31887 37573 ft 502 kts 341°
2026-04-23 15:00 13.13295 -76.33819 37573 ft 501 kts 341°
2026-04-23 15:01 13.20019 -76.35754 37573 ft 501 kts 341°
2026-04-23 15:01 13.26703 -76.37680 37573 ft 501 kts 341°
2026-04-23 15:02 13.33412 -76.39614 37573 ft 501 kts 341°
2026-04-23 15:02 13.40117 -76.41551 37583 ft 500 kts 341°
2026-04-23 15:03 13.46822 -76.43487 37584 ft 500 kts 341°
2026-04-23 15:03 13.53539 -76.45427 37581 ft 500 kts 341°
2026-04-23 15:04 13.60233 -76.47362 37582 ft 500 kts 341°
2026-04-23 15:04 13.66882 -76.49286 37581 ft 500 kts 341°
2026-04-23 15:05 13.73589 -76.51226 37591 ft 500 kts 341°
2026-04-23 15:05 13.80285 -76.53164 37588 ft 500 kts 341°
2026-04-23 15:06 13.86990 -76.55106 37592 ft 500 kts 341°
2026-04-23 15:06 13.93642 -76.57035 37587 ft 500 kts 341°
2026-04-23 15:07 14.00327 -76.58975 37597 ft 499 kts 341°
2026-04-23 15:07 14.07015 -76.60914 37596 ft 499 kts 340°
2026-04-23 15:08 14.13702 -76.62855 37592 ft 499 kts 340°
2026-04-23 15:09 14.23726 -76.65768 37594 ft 498 kts 340°
2026-04-23 15:09 14.30397 -76.67709 37593 ft 498 kts 340°
2026-04-23 15:10 14.35944 -76.69323 37593 ft 498 kts 340°
2026-04-23 15:10 14.43712 -76.71584 37595 ft 500 kts 340°
2026-04-23 15:11 14.50419 -76.73534 37603 ft 501 kts 340°
2026-04-23 15:11 14.57128 -76.75492 37597 ft 501 kts 340°
2026-04-23 15:12 14.63841 -76.77452 37598 ft 501 kts 340°
2026-04-23 15:12 14.70548 -76.79412 37596 ft 500 kts 340°
2026-04-23 15:13 14.77208 -76.81357 37590 ft 500 kts 340°
2026-04-23 15:13 14.83902 -76.83313 37592 ft 500 kts 340°
2026-04-23 15:14 14.90600 -76.85271 37589 ft 500 kts 340°
2026-04-23 15:14 14.97306 -76.87233 37589 ft 500 kts 340°
2026-04-23 15:15 15.04021 -76.89120 37593 ft 501 kts 342°
2026-04-23 15:15 15.09686 -76.90406 37593 ft 502 kts 344°
2026-04-23 15:16 15.16517 -76.91885 37594 ft 501 kts 343°
2026-04-23 15:16 15.24433 -76.93664 37591 ft 501 kts 343°
2026-04-23 15:17 15.31239 -76.95234 37592 ft 500 kts 343°
2026-04-23 15:17 15.38034 -76.96811 37594 ft 500 kts 342°
2026-04-23 15:18 15.43680 -76.98120 37591 ft 500 kts 342°
2026-04-23 15:18 15.50471 -76.99695 37594 ft 500 kts 342°
2026-04-23 15:19 15.57264 -77.01270 37594 ft 500 kts 342°
2026-04-23 15:19 15.64051 -77.02846 37602 ft 500 kts 342°
2026-04-23 15:20 15.70836 -77.04420 37604 ft 499 kts 342°
2026-04-23 15:20 15.77620 -77.05996 37604 ft 500 kts 342°
2026-04-23 15:21 15.84406 -77.07573 37601 ft 499 kts 342°
2026-04-23 15:21 15.91189 -77.09154 37602 ft 499 kts 342°
2026-04-23 15:22 15.97979 -77.10736 37604 ft 499 kts 342°
2026-04-23 15:22 16.04724 -77.12308 37603 ft 499 kts 342°
2026-04-23 15:23 16.11493 -77.13884 37602 ft 498 kts 342°
2026-04-23 15:23 16.18243 -77.15457 37600 ft 497 kts 342°
2026-04-23 15:24 16.24989 -77.17034 37602 ft 497 kts 342°
2026-04-23 15:24 16.31729 -77.18611 37604 ft 497 kts 342°
2026-04-23 15:25 16.38481 -77.20188 37600 ft 497 kts 342°
2026-04-23 15:25 16.45227 -77.21764 37593 ft 497 kts 342°
2026-04-23 15:26 16.51974 -77.23345 37598 ft 497 kts 341°
2026-04-23 15:26 16.58719 -77.24926 37599 ft 497 kts 341°
2026-04-23 15:27 16.65466 -77.26509 37600 ft 497 kts 341°
2026-04-23 15:27 16.72213 -77.28092 37601 ft 497 kts 341°
2026-04-23 15:28 16.78921 -77.29670 37604 ft 497 kts 341°
2026-04-23 15:28 16.85671 -77.31257 37604 ft 496 kts 341°
2026-04-23 15:29 16.92408 -77.32839 37604 ft 496 kts 341°
2026-04-23 15:29 16.99155 -77.34421 37601 ft 496 kts 341°
2026-04-23 15:30 17.05888 -77.36008 37603 ft 495 kts 341°
2026-04-23 15:30 17.12614 -77.37598 37604 ft 495 kts 341°
2026-04-23 15:31 17.19288 -77.39173 37598 ft 495 kts 341°
2026-04-23 15:31 17.26010 -77.40758 37600 ft 496 kts 341°
2026-04-23 15:32 17.32731 -77.42340 37596 ft 494 kts 341°
2026-04-23 15:32 17.39437 -77.43926 37604 ft 494 kts 341°
2026-04-23 15:33 17.46149 -77.45517 37604 ft 494 kts 341°
2026-04-23 15:33 17.52850 -77.47106 37604 ft 494 kts 341°
2026-04-23 15:34 17.59558 -77.48697 37603 ft 494 kts 341°
2026-04-23 15:34 17.66269 -77.50288 37595 ft 494 kts 341°
2026-04-23 15:35 17.72972 -77.51877 37599 ft 494 kts 341°
2026-04-23 15:35 17.79666 -77.53467 37602 ft 493 kts 341°
2026-04-23 15:36 17.86362 -77.55059 37596 ft 493 kts 341°
2026-04-23 15:36 17.93012 -77.56639 37593 ft 492 kts 341°
2026-04-23 15:37 17.99700 -77.58230 37604 ft 493 kts 341°
2026-04-23 15:37 18.06394 -77.59826 37601 ft 493 kts 340°
2026-04-23 15:38 18.13083 -77.61422 37586 ft 493 kts 340°
2026-04-23 15:38 18.19777 -77.63018 37594 ft 493 kts 340°
2026-04-23 15:39 18.26464 -77.64618 37592 ft 493 kts 340°
2026-04-23 15:39 18.33157 -77.66216 37592 ft 493 kts 340°
2026-04-23 15:40 18.39835 -77.67812 37593 ft 492 kts 340°
2026-04-23 15:40 18.46467 -77.69400 37586 ft 492 kts 340°
2026-04-23 15:41 18.53143 -77.71000 37595 ft 492 kts 340°
2026-04-23 15:41 18.59818 -77.72599 37595 ft 492 kts 340°
2026-04-23 15:42 18.66500 -77.74199 37593 ft 492 kts 340°
2026-04-23 15:42 18.73177 -77.75803 37583 ft 492 kts 340°
2026-04-23 15:43 18.79855 -77.77408 37590 ft 491 kts 340°
2026-04-23 15:43 18.86536 -77.79016 37589 ft 491 kts 340°
2026-04-23 15:44 18.93154 -77.80608 37594 ft 491 kts 340°
2026-04-23 15:44 18.99860 -77.82224 37589 ft 491 kts 340°
2026-04-23 15:45 19.06472 -77.83819 37589 ft 491 kts 340°
2026-04-23 15:45 19.13123 -77.85425 37593 ft 490 kts 340°
2026-04-23 15:46 19.19774 -77.87031 37598 ft 490 kts 340°
2026-04-23 15:46 19.26424 -77.88638 37600 ft 490 kts 340°
2026-04-23 15:47 19.33065 -77.90244 37604 ft 490 kts 339°
2026-04-23 15:47 19.39712 -77.91854 37608 ft 490 kts 339°
2026-04-23 15:48 19.46365 -77.93467 37600 ft 489 kts 339°
2026-04-23 15:48 19.52952 -77.95064 37612 ft 488 kts 339°
2026-04-23 15:49 19.59572 -77.96670 37614 ft 488 kts 339°
2026-04-23 15:49 19.66194 -77.98279 37618 ft 488 kts 339°
2026-04-23 15:50 19.72825 -77.99892 37622 ft 488 kts 339°
2026-04-23 15:50 19.79448 -78.01503 37629 ft 488 kts 339°
2026-04-23 15:51 19.86117 -78.03001 37629 ft 492 kts 342°
2026-04-23 15:51 19.92891 -78.04159 37630 ft 493 kts 343°
2026-04-23 15:52 19.99621 -78.05284 37638 ft 492 kts 343°
2026-04-23 15:52 20.06388 -78.06472 37638 ft 492 kts 342°
2026-04-23 15:53 20.13146 -78.07690 37638 ft 492 kts 342°
2026-04-23 15:53 20.19893 -78.08914 37645 ft 492 kts 342°
2026-04-23 15:54 20.26652 -78.10141 37647 ft 492 kts 342°
2026-04-23 15:54 20.33403 -78.11364 37647 ft 492 kts 342°
2026-04-23 15:55 20.40120 -78.12584 37647 ft 492 kts 342°
2026-04-23 15:55 20.46871 -78.13808 37654 ft 492 kts 342°
2026-04-23 15:56 20.53634 -78.15038 37656 ft 492 kts 342°
2026-04-23 15:56 20.60369 -78.16267 37656 ft 491 kts 342°
2026-04-23 15:57 20.67073 -78.17485 37656 ft 491 kts 342°
2026-04-23 15:57 20.73805 -78.18711 37656 ft 491 kts 342°
2026-04-23 15:58 20.80544 -78.19940 37662 ft 491 kts 341°
2026-04-23 15:58 20.87277 -78.21169 37666 ft 490 kts 341°
2026-04-23 15:59 20.94008 -78.22399 37665 ft 490 kts 341°
2026-04-23 15:59 21.00798 -78.23648 37668 ft 500 kts 341°
2026-04-23 16:00 21.07694 -78.24916 37666 ft 505 kts 341°
2026-04-23 16:00 21.14587 -78.26175 37665 ft 505 kts 341°
2026-04-23 16:01 21.21518 -78.27440 37666 ft 505 kts 341°
2026-04-23 16:01 21.28462 -78.28712 37666 ft 504 kts 341°
2026-04-23 16:02 21.35374 -78.29980 37665 ft 504 kts 341°
2026-04-23 16:02 21.42284 -78.31250 37665 ft 503 kts 341°
2026-04-23 16:03 21.49188 -78.32521 37666 ft 503 kts 341°
2026-04-23 16:03 21.54923 -78.33582 37665 ft 503 kts 341°
2026-04-23 16:04 21.61835 -78.34856 37674 ft 503 kts 341°
2026-04-23 16:04 21.69861 -78.36337 37675 ft 503 kts 340°
2026-04-23 16:05 21.75645 -78.37406 37675 ft 503 kts 340°
2026-04-23 16:05 21.82511 -78.38676 37675 ft 503 kts 340°
2026-04-23 16:06 21.89413 -78.39952 37675 ft 503 kts 340°
2026-04-23 16:06 21.96311 -78.41231 37675 ft 503 kts 340°
2026-04-23 16:07 22.03214 -78.42514 37675 ft 503 kts 340°
2026-04-23 16:07 22.10112 -78.43796 37675 ft 503 kts 340°
2026-04-23 16:08 22.16996 -78.45073 37924 ft 499 kts 340°
2026-04-23 16:08 22.20362 -78.45694 38255 ft 496 kts 340°
2026-04-23 16:08 22.23757 -78.46323 38530 ft 494 kts 340°
2026-04-23 16:08 22.27153 -78.46953 38780 ft 493 kts 340°
2026-04-23 16:09 22.30539 -78.47585 38992 ft 493 kts 340°
2026-04-23 16:09 22.33916 -78.48217 39200 ft 493 kts 340°
2026-04-23 16:09 22.37292 -78.48848 39392 ft 493 kts 340°
2026-04-23 16:09 22.40671 -78.49481 39582 ft 493 kts 340°
2026-04-23 16:10 22.44048 -78.50113 39760 ft 493 kts 340°
2026-04-23 16:10 22.47425 -78.50745 39998 ft 492 kts 340°
2026-04-23 16:10 22.50791 -78.51374 40088 ft 492 kts 340°
2026-04-23 16:11 22.57564 -78.52643 40101 ft 496 kts 340°
2026-04-23 16:11 22.64395 -78.53925 40101 ft 499 kts 340°
2026-04-23 16:12 22.71194 -78.55196 40101 ft 499 kts 340°
2026-04-23 16:12 22.78041 -78.56477 40101 ft 498 kts 340°
2026-04-23 16:13 22.84878 -78.57762 40101 ft 498 kts 340°
2026-04-23 16:13 22.95139 -78.59690 40101 ft 498 kts 340°
2026-04-23 16:14 23.01929 -78.60968 40100 ft 498 kts 340°
2026-04-23 16:14 23.08761 -78.62255 40106 ft 498 kts 340°
2026-04-23 16:15 23.15599 -78.63545 40110 ft 498 kts 340°
2026-04-23 16:15 23.22435 -78.64836 40116 ft 498 kts 340°
2026-04-23 16:16 23.29267 -78.66128 40119 ft 498 kts 340°
2026-04-23 16:16 23.36099 -78.67421 40119 ft 498 kts 340°
2026-04-23 16:17 23.42930 -78.68715 40119 ft 498 kts 340°
2026-04-23 16:17 23.49712 -78.70001 40119 ft 498 kts 340°
2026-04-23 16:18 23.56581 -78.71305 40119 ft 498 kts 340°
2026-04-23 16:18 23.63370 -78.72595 40133 ft 498 kts 340°
2026-04-23 16:19 23.70197 -78.73894 40127 ft 498 kts 340°
2026-04-23 16:19 23.77019 -78.75192 40127 ft 497 kts 340°
2026-04-23 16:20 23.83829 -78.76490 40127 ft 496 kts 339°
2026-04-23 16:20 23.90636 -78.77790 40127 ft 496 kts 339°
2026-04-23 16:21 23.97438 -78.79090 40134 ft 496 kts 339°
2026-04-23 16:21 24.04193 -78.80524 40138 ft 490 kts 335°
2026-04-23 16:22 24.10746 -78.82482 40137 ft 486 kts 333°
2026-04-23 16:22 24.17259 -78.84510 40138 ft 487 kts 334°
2026-04-23 16:23 24.23768 -78.86453 40138 ft 488 kts 334°
2026-04-23 16:23 24.30325 -78.88358 40137 ft 487 kts 335°
2026-04-23 16:24 24.36890 -78.90256 40138 ft 487 kts 335°
2026-04-23 16:24 24.43443 -78.92155 40138 ft 487 kts 335°
2026-04-23 16:25 24.50002 -78.94061 40137 ft 487 kts 335°
2026-04-23 16:25 24.56516 -78.95957 40138 ft 487 kts 335°
2026-04-23 16:26 24.63074 -78.97868 40137 ft 487 kts 335°
2026-04-23 16:26 24.69630 -78.99780 40138 ft 487 kts 335°
2026-04-23 16:27 24.76183 -79.01693 40147 ft 487 kts 335°
2026-04-23 16:27 24.82739 -79.03609 40147 ft 487 kts 335°
2026-04-23 16:28 24.89292 -79.05526 40147 ft 487 kts 335°
2026-04-23 16:28 24.95797 -79.07431 40147 ft 486 kts 335°
2026-04-23 16:29 25.01449 -79.09088 40146 ft 486 kts 335°
2026-04-23 16:29 25.07987 -79.11008 40147 ft 486 kts 335°
2026-04-23 16:30 25.14530 -79.12931 40147 ft 486 kts 335°
2026-04-23 16:30 25.21081 -79.14858 40147 ft 487 kts 335°
2026-04-23 16:31 25.27635 -79.16788 40147 ft 486 kts 336°
2026-04-23 16:31 25.34132 -79.18702 40146 ft 486 kts 336°
2026-04-23 16:32 25.40668 -79.20631 40147 ft 486 kts 336°
2026-04-23 16:32 25.47199 -79.22562 40152 ft 486 kts 336°
2026-04-23 16:33 25.53730 -79.24494 40156 ft 486 kts 336°
2026-04-23 16:33 25.60260 -79.26427 40156 ft 485 kts 336°
2026-04-23 16:34 25.66765 -79.28397 40153 ft 481 kts 333°
2026-04-23 16:34 25.72672 -79.31536 40156 ft 461 kts 317°
2026-04-23 16:35 25.77727 -79.35779 40155 ft 457 kts 314°
2026-04-23 16:35 25.82740 -79.40136 40156 ft 458 kts 314°
2026-04-23 16:36 25.87757 -79.44501 40156 ft 458 kts 315°
2026-04-23 16:36 25.92768 -79.48866 40156 ft 458 kts 315°
2026-04-23 16:37 25.97776 -79.53233 40156 ft 458 kts 315°
2026-04-23 16:37 26.02783 -79.57604 40152 ft 454 kts 315°
2026-04-23 16:38 26.07693 -79.61890 40155 ft 446 kts 315°
2026-04-23 16:38 26.12570 -79.66160 40156 ft 445 kts 315°
2026-04-23 16:39 26.17430 -79.70418 40156 ft 445 kts 315°
2026-04-23 16:39 26.22268 -79.74662 40156 ft 445 kts 315°
2026-04-23 16:40 26.27134 -79.78933 40161 ft 445 kts 315°
2026-04-23 16:40 26.31999 -79.83208 40165 ft 445 kts 315°
2026-04-23 16:41 26.36861 -79.87486 40165 ft 445 kts 315°
2026-04-23 16:41 26.41716 -79.91781 40162 ft 444 kts 314°
2026-04-23 16:42 26.46233 -79.96423 39997 ft 437 kts 310°
2026-04-23 16:42 26.48436 -79.98757 39752 ft 438 kts 310°
2026-04-23 16:42 26.50653 -80.01106 39509 ft 440 kts 310°
2026-04-23 16:43 26.52879 -80.03465 39253 ft 441 kts 310°
2026-04-23 16:43 26.55103 -80.05820 39004 ft 440 kts 310°
2026-04-23 16:43 26.57320 -80.08170 38760 ft 439 kts 310°
2026-04-23 16:43 26.59539 -80.10522 38520 ft 440 kts 310°
2026-04-23 16:44 26.61722 -80.12836 38089 ft 437 kts 310°
2026-04-23 16:44 26.63927 -80.15174 37475 ft 437 kts 310°
2026-04-23 16:44 26.66136 -80.17519 36835 ft 438 kts 310°
2026-04-23 16:44 26.68343 -80.19864 36164 ft 438 kts 311°
2026-04-23 16:45 26.70562 -80.22222 35472 ft 440 kts 311°
2026-04-23 16:45 26.72785 -80.24586 34745 ft 442 kts 311°
2026-04-23 16:45 26.75025 -80.26970 33950 ft 445 kts 311°
2026-04-23 16:45 26.77280 -80.29372 33130 ft 449 kts 311°
2026-04-23 16:46 26.79549 -80.31789 32295 ft 452 kts 311°
2026-04-23 16:46 26.81829 -80.34220 31445 ft 454 kts 312°
2026-04-23 16:46 26.84096 -80.36638 30560 ft 457 kts 313°
2026-04-23 16:46 26.86431 -80.39129 29762 ft 458 kts 313°
2026-04-23 16:47 26.88699 -80.41547 29162 ft 453 kts 313°
2026-04-23 16:47 26.90970 -80.43970 28552 ft 450 kts 313°
2026-04-23 16:47 26.93225 -80.46378 27937 ft 446 kts 313°
2026-04-23 16:47 26.95469 -80.48778 27312 ft 442 kts 313°
2026-04-23 16:48 26.97686 -80.51151 26702 ft 439 kts 313°
2026-04-23 16:48 26.99884 -80.53503 26096 ft 435 kts 313°
2026-04-23 16:48 27.02068 -80.55844 25488 ft 432 kts 313°
2026-04-23 16:48 27.04232 -80.58165 24886 ft 429 kts 314°
2026-04-23 16:49 27.05660 -80.59697 24486 ft 426 kts 314°
2026-04-23 16:49 27.07794 -80.61985 23894 ft 423 kts 314°
2026-04-23 16:49 27.10828 -80.64774 23082 ft 423 kts 326°
2026-04-23 16:49 27.13492 -80.66193 22770 ft 429 kts 335°
2026-04-23 16:50 27.16312 -80.67392 22457 ft 435 kts 336°
2026-04-23 16:50 27.19120 -80.68555 22140 ft 435 kts 336°
2026-04-23 16:50 27.21033 -80.69350 21915 ft 434 kts 336°
2026-04-23 16:50 27.24762 -80.70906 21524 ft 428 kts 336°
2026-04-23 16:51 27.27515 -80.72055 21291 ft 415 kts 336°
2026-04-23 16:51 27.30181 -80.73171 21037 ft 403 kts 336°
2026-04-23 16:51 27.32769 -80.74257 20775 ft 392 kts 336°
2026-04-23 16:51 27.34479 -80.74976 20611 ft 384 kts 336°
2026-04-23 16:52 27.37745 -80.76351 20169 ft 374 kts 336°
2026-04-23 16:52 27.40158 -80.77389 19736 ft 369 kts 335°
2026-04-23 16:52 27.41734 -80.78073 19522 ft 364 kts 335°
2026-04-23 16:52 27.44083 -80.79095 19243 ft 361 kts 335°
2026-04-23 16:53 27.46426 -80.80114 18969 ft 361 kts 335°
2026-04-23 16:53 27.48762 -80.81129 18689 ft 360 kts 335°
2026-04-23 16:53 27.51095 -80.82140 18424 ft 358 kts 335°
2026-04-23 16:53 27.53412 -80.83146 18167 ft 356 kts 336°
2026-04-23 16:54 27.55723 -80.84149 17896 ft 355 kts 336°
2026-04-23 16:54 27.58008 -80.85170 17616 ft 353 kts 333°
2026-04-23 16:54 27.60230 -80.86335 17336 ft 351 kts 331°
2026-04-23 16:54 27.62431 -80.87528 16937 ft 350 kts 332°
2026-04-23 16:55 27.64635 -80.88709 16637 ft 349 kts 332°
2026-04-23 16:55 27.66828 -80.89874 16374 ft 348 kts 332°
2026-04-23 16:55 27.69025 -80.91034 16115 ft 347 kts 333°
2026-04-23 16:55 27.71211 -80.92186 15850 ft 347 kts 333°
2026-04-23 16:56 27.73395 -80.93334 15585 ft 346 kts 333°
2026-04-23 16:56 27.75549 -80.94466 15328 ft 345 kts 333°
2026-04-23 16:56 27.77725 -80.95609 15068 ft 344 kts 333°
2026-04-23 16:56 27.79894 -80.96748 14808 ft 343 kts 333°
2026-04-23 16:57 27.82061 -80.97888 14548 ft 343 kts 333°
2026-04-23 16:57 27.84221 -80.99024 14297 ft 342 kts 333°
2026-04-23 16:57 27.86372 -81.00154 14041 ft 341 kts 333°
2026-04-23 16:57 27.88526 -81.01286 13785 ft 340 kts 333°
2026-04-23 16:58 27.90670 -81.02415 13527 ft 339 kts 334°
2026-04-23 16:58 27.92811 -81.03542 13274 ft 338 kts 334°
2026-04-23 16:58 27.94957 -81.04636 13017 ft 338 kts 337°
2026-04-23 16:58 27.97133 -81.05551 12764 ft 338 kts 339°
2026-04-23 16:59 27.99346 -81.06441 12501 ft 337 kts 339°
2026-04-23 16:59 28.01571 -81.07353 12234 ft 336 kts 339°
2026-04-23 16:59 28.03734 -81.08253 11984 ft 336 kts 339°
2026-04-23 16:59 28.05930 -81.09174 11739 ft 336 kts 339°
2026-04-23 17:00 28.08118 -81.10096 11497 ft 335 kts 339°
2026-04-23 17:00 28.10303 -81.11038 11237 ft 335 kts 339°
2026-04-23 17:00 28.12469 -81.11993 10975 ft 334 kts 339°
2026-04-23 17:00 28.14630 -81.12949 10803 ft 333 kts 339°
2026-04-23 17:01 28.16787 -81.13901 10584 ft 332 kts 339°
2026-04-23 17:01 28.18922 -81.14843 10387 ft 323 kts 339°
2026-04-23 17:01 28.20956 -81.15741 10134 ft 304 kts 339°
2026-04-23 17:01 28.22868 -81.16586 9826 ft 296 kts 339°
2026-04-23 17:02 28.24779 -81.17430 9565 ft 294 kts 340°
2026-04-23 17:02 28.26696 -81.18237 9336 ft 293 kts 344°
2026-04-23 17:02 28.28704 -81.18593 9114 ft 291 kts 359°
2026-04-23 17:02 28.30692 -81.18643 8920 ft 288 kts
2026-04-23 17:03 28.32656 -81.18668 8775 ft 276 kts
2026-04-23 17:03 28.34530 -81.18691 8536 ft 261 kts
2026-04-23 17:03 28.36315 -81.18716 8353 ft 255 kts
2026-04-23 17:03 28.38083 -81.18741 8158 ft 253 kts
2026-04-23 17:04 28.39840 -81.18768 7835 ft 253 kts
2026-04-23 17:04 28.41602 -81.18785 7470 ft 254 kts
2026-04-23 17:04 28.43382 -81.18795 7092 ft 256 kts
2026-04-23 17:04 28.45146 -81.18804 6715 ft 257 kts
2026-04-23 17:05 28.46937 -81.18816 6351 ft 258 kts
2026-04-23 17:05 28.48731 -81.18829 5987 ft 258 kts
2026-04-23 17:05 28.50537 -81.18846 5608 ft 258 kts
2026-04-23 17:05 28.52309 -81.18863 5228 ft 251 kts
2026-04-23 17:06 28.54031 -81.18878 4859 ft 245 kts
2026-04-23 17:06 28.55721 -81.18896 4461 ft 239 kts
2026-04-23 17:06 28.57361 -81.18917 4092 ft 233 kts
2026-04-23 17:06 28.58970 -81.18951 3777 ft 228 kts 358°
2026-04-23 17:07 28.60479 -81.19479 3530 ft 229 kts 328°
2026-04-23 17:07 28.61534 -81.20818 3323 ft 229 kts 295°
2026-04-23 17:07 28.61854 -81.22546 3138 ft 223 kts 269°
2026-04-23 17:07 28.61766 -81.24282 2979 ft 215 kts 264°
2026-04-23 17:08 28.61588 -81.25927 2919 ft 206 kts 258°
2026-04-23 17:08 28.60929 -81.27304 2791 ft 196 kts 217°
2026-04-23 17:08 28.59767 -81.28011 2691 ft 189 kts 195°
2026-04-23 17:08 28.58486 -81.28359 2587 ft 189 kts 184°
2026-04-23 17:09 28.57181 -81.28338 2509 ft 187 kts 174°
2026-04-23 17:09 28.55883 -81.28357 2346 ft 187 kts 179°
2026-04-23 17:09 28.54578 -81.28364 2109 ft 189 kts 177°
2026-04-23 17:09 28.53269 -81.28334 1859 ft 186 kts 178°
2026-04-23 17:10 28.51996 -81.28332 1606 ft 180 kts 179°
2026-04-23 17:10 28.50773 -81.28327 1364 ft 175 kts 178°
2026-04-23 17:10 28.49577 -81.28311 1134 ft 168 kts 179°
2026-04-23 17:10 28.48424 -81.28300 918 ft 163 kts 178°
2026-04-23 17:11 28.47299 -81.28289 701 ft 156 kts 179°
2026-04-23 17:11 28.46272 -81.28280 666 ft 138 kts 176°
2026-04-23 17:11 28.45176 -81.28257 1135 ft 166 kts 176°
2026-04-23 17:11 28.44055 -81.28216 1799 ft 160 kts 175°
2026-04-23 17:12 28.42885 -81.28192 2238 ft 179 kts 175°
2026-04-23 17:12 28.41660 -81.27749 2626 ft 197 kts 143°
2026-04-23 17:12 28.40791 -81.26463 2898 ft 219 kts 112°
2026-04-23 17:12 28.40306 -81.24717 3153 ft 243 kts 104°
2026-04-23 17:13 28.39901 -81.22798 3687 ft 256 kts 103°
2026-04-23 17:13 28.39683 -81.20781 3931 ft 259 kts 86°
2026-04-23 17:13 28.40225 -81.18845 3976 ft 261 kts 59°
2026-04-23 17:13 28.41507 -81.17414 3977 ft 263 kts 31°
2026-04-23 17:14 28.43252 -81.16784 4027 ft 265 kts
2026-04-23 17:14 28.45095 -81.16722 4301 ft 267 kts 359°
2026-04-23 17:14 28.46972 -81.16829 4896 ft 272 kts 358°
2026-04-23 17:14 28.48839 -81.16947 5561 ft 272 kts 358°
2026-04-23 17:15 28.50744 -81.17068 5935 ft 267 kts 358°
2026-04-23 17:15 28.52562 -81.17186 5676 ft 261 kts 358°
2026-04-23 17:15 28.54358 -81.17304 5300 ft 256 kts 358°
2026-04-23 17:15 28.56085 -81.17420 5098 ft 241 kts 358°
2026-04-23 17:16 28.57725 -81.17534 4825 ft 233 kts 358°
2026-04-23 17:16 28.59345 -81.17644 4567 ft 232 kts 358°
2026-04-23 17:16 28.60944 -81.17770 4355 ft 229 kts 355°
2026-04-23 17:16 28.62421 -81.18388 4233 ft 227 kts 324°
2026-04-23 17:17 28.63378 -81.19755 4103 ft 220 kts 292°
2026-04-23 17:17 28.63587 -81.21426 4005 ft 210 kts 267°
2026-04-23 17:17 28.63525 -81.22507 3921 ft 204 kts 264°
2026-04-23 17:17 28.63224 -81.24590 3697 ft 199 kts 247°
2026-04-23 17:18 28.61336 -81.26733 3276 ft 194 kts 214°
2026-04-23 17:18 28.60236 -81.27616 3043 ft 192 kts 213°
2026-04-23 17:18 28.59062 -81.28336 2923 ft 193 kts 197°
2026-04-23 17:19 28.57754 -81.28457 2737 ft 188 kts 172°
2026-04-23 17:19 28.56448 -81.28336 2475 ft 189 kts 175°
2026-04-23 17:19 28.55126 -81.28367 2210 ft 189 kts 181°
2026-04-23 17:19 28.53816 -81.28360 1952 ft 187 kts 176°
2026-04-23 17:20 28.52535 -81.28331 1709 ft 181 kts 179°
2026-04-23 17:20 28.50111 -81.28318 1246 ft 170 kts 178°
2026-04-23 17:21 28.47822 -81.28294 799 ft 158 kts 178°
2026-04-23 17:21 28.46744 -81.28285 584 ft 153 kts 177°
2026-04-23 17:21 28.44683 -81.28261 166 ft 147 kts 177°
2026-04-23 17:22 28.43683 -81.28248 105 ft 137 kts 178°
2026-04-23 17:22 28.42672 -81.28243 107 ft 25 kts 186°
2026-04-23 17:23 28.42502 -81.28419 103 ft 14 kts 251°
2026-04-23 17:23 28.42468 -81.28531 103 ft 16 kts 251°
2026-04-23 17:23 28.42393 -81.28772 110 ft 17 kts 250°
2026-04-23 17:24 28.42348 -81.28916 110 ft 21 kts 250°
2026-04-23 17:24 28.42296 -81.29092 101 ft 26 kts 257°
2026-04-23 17:24 28.42284 -81.29356 101 ft 16 kts 269°
2026-04-23 17:25 28.42282 -81.29640 101 ft 19 kts 269°
2026-04-23 17:25 28.42281 -81.29801 101 ft 22 kts 269°
2026-04-23 17:26 28.42278 -81.30077 101 ft 11 kts 270°
2026-04-23 17:26 28.42399 -81.30136 101 ft 9 kts 359°
2026-04-23 17:27 28.42432 -81.30066 101 ft 7 kts 95°
2026-04-23 17:27 28.42433 -81.29998 101 ft 10 kts 76°
2026-04-23 17:27 28.42471 -81.29974 101 ft 4 kts 342°
2026-04-23 17:27 28.42499 -81.29992 101 ft 2 kts 330°
2026-04-23 17:28 28.42513 -81.30002 101 ft 3 kts 330°
2026-04-23 17:28 28.42519 -81.30006 101 ft 0 kts 330°